Погода в Чапаеве

Россия / Астраханская область     45°58′40″N   48°16′17″E
темп.,
°C
ветер,
м/с
пор.,
м/с
влажн.,
%
обл.,
%
осадки,
мм/ч
давл.,
гПа
погр.,
м
24 сентября, пт
пт2401:00+15с5877100 0.3 1010330
04:00+14с61183100 0.3 1009364
07:00+15с51086100 0.0 1007378
10:00+18сз5468100 0.0 1006594
13:00+18сз7868100 0.0 1008778
16:00+16сз91168100 0.0 1008783
19:00+13зсз71279100 0.0 1010639
22:00+12зсз7137998 0.0 1012542
25 сентября, сб
сб2501:00+11зсз4117863 0.0 1013352
04:00+9зсз388593 0.0 1013155
07:00+10зсз22875 0.0 101338
10:00+17зсз235577 0.0 1013715
13:00+21сз2335100 0.0 10121489
16:00+20ссз4334100 0.0 10121362
19:00+16сз3649100 0.0 1014135
22:00+14с115999 0.0 101510
26 сентября, вс
вс2601:00+14зсз4763100 0.0 1015155
04:00+14з51077100 0.0 1016604
07:00+14зюз4875100 0.1 1016503
10:00+17з78565 0.1 1016942
13:00+20з794024 0.0 10152076
16:00+18з7942100 0.0 10151658
19:00+17з6104899 0.0 10141066
22:00+15зюз6106782 0.0 1013937
27 сентября, пн
пн2701:00+14юз91484100 0.3 10111049
04:00+16з10147523 0.8 10091043
07:00+13з814744 0.2 1010730
10:00+15зсз912545 0.2 10111604
13:00+18зсз1013385 0.0 10122034
16:00+17сз10133845 0.0 10122288
19:00+14сз510515 0.0 1014369
22:00+11зсз38723 0.0 1016196
28 сентября, вт
вт2801:00+10зсз37781 0.0 1016136
04:00+10зсз37815 0.0 1017135
07:00+10сз35835 0.0 101879
10:00+16ссз34545 0.0 1019792
13:00+19ссз444095 0.0 10202071
16:00+18ссв443997 0.0 10201828
19:00+15ссв6848100 0.0 1023642
22:00+13ссв465098 0.0 1024552